Back to catalog

DELTA 1 R/B

AliveUNKNOWN
NORAD 341·ROCKET BODY·🇺🇸 United States

Launched Jul 10, 1962 from Cape Canaveral Space Force Station

Loading…

Next Passes (next 24 hours)

TLE

FreshSource: Space-Track

Epoch: Sep 9, 2026, 18:26 UTC

1 00341U 62029B   26252.76829993 -.00000066  00000-0 -13720-3 0  9997
2 00341  44.7914  57.4856 2421037  69.8354 325.3266  9.14329382142878

Track DELTA 1 R/B in real time with AllMySat

Download on the App Store